Location: Altleiningen
(49.5078°N, 8.0741°E)
Time: 22:04:32
(UTC+00:00)

SeaSat 1 - Pass Details

Date: 03 March 2021
Orbit: 744 x 747 km, 108.0° (Epoch: 12 April)

Event Time Altitude Azimuth Distance (km) Brightness Sun altitude
Rises 19:32:44 0° 26° (NNE) 3,203 5.6 -23.1°
Reaches altitude 10° 19:35:04 10° 21° (NNE) 2,275 4.9 -23.4°
Maximum altitude 19:39:48 48° 308° (NW) 979 3.4 -24.2°
Drops below altitude 10° 19:44:31 10° 235° (SW) 2,264 5.3 -24.9°
Sets 19:46:50 0° 230° (SW) 3,184 6.1 -25.2°
